Weather History for Somerville, NJ

Change the Weather History Date:

Wednesday, May 7, 2014

  Actual Average Record
Temperature  
Mean Temperature 53 °F -  
Max Temperature 70 °F 69 °F 91 °F (2000)
Min Temperature 36 °F 43 °F 31 °F (1970)
Degree Days  
Heating Degree Days 12    
Growing Degree Days 3 (Base 50)    
Moisture  
Dew Point 36 °F    
Average Humidity 52    
Maximum Humidity 93    
Minimum Humidity 29    
Precipitation  
Precipitation 0.00 in - - ()
Sea Level Pressure  
Sea Level Pressure 30.17 in    
Wind  
Wind Speed 2 mph (South)    
Max Wind Speed 8 mph    
Max Gust Speed -    
Visibility 10 miles    
Events      
Averages and records for this station are not official NWS values.
T = Trace of Precipitation, MM = Missing Value Source: NWS Daily Summary

Daily Weather History Graph

Daily Weather History Graph

Search for Another Location

Airport:

Trip Planner

Search our weather history database for the weather conditions in past years. The results will help you decide how hot, cold, wet, or windy it might be!

Date:

Astronomy

May. 07, 2014 Rise Set
Actual Time 5:50 AM EDT 8:00 PM EDT
Civil Twilight 5:20 AM EDT 8:31 PM EDT
Nautical Twilight 4:42 AM EDT 9:08 PM EDT
Astronomical Twilight 4:02 AM EDT 9:49 PM EDT
Moon 1:01 PM EDT (5/7) 1:50 AM EDT (5/7)
Length of Visible Light 15h 11m
Length of Day
14h 10m
First Quarter, 55% of the Moon is Illuminated
May 7
First Quarter
May 14
Full
May 21
Last Quarter
May 28
New
Jun 5
First Quarter

Hourly Weather History & Observations

Time (EDT) Temp. Windchill Dew Point Humidity Pressure Visibility Wind Dir Wind Speed Gust Speed Precip Events Conditions
12:53 AM 45.0 °F - 34.0 °F 65% 30.09 in 10.0 mi Calm Calm - N/A   Clear
1:53 AM 42.1 °F - 35.1 °F 76% 30.11 in 10.0 mi Calm Calm - N/A   Clear
2:53 AM 42.1 °F - 35.1 °F 76% 30.12 in 10.0 mi Calm Calm - N/A   Clear
3:53 AM 39.0 °F - 34.0 °F 82% 30.14 in 10.0 mi Calm Calm - N/A   Clear
4:53 AM 39.0 °F 36.8 °F 35.1 °F 86% 30.15 in 10.0 mi NNW 3.5 mph - N/A   Clear
5:53 AM 36.0 °F - 34.0 °F 93% 30.17 in 10.0 mi Calm Calm - N/A   Clear
6:53 AM 39.9 °F - 36.0 °F 86% 30.17 in 10.0 mi Calm Calm - N/A   Clear
7:53 AM 51.1 °F - 34.0 °F 52% 30.19 in 10.0 mi Calm Calm - N/A   Clear
8:53 AM 57.0 °F - 30.9 °F 37% 30.22 in 10.0 mi East 5.8 mph - N/A   Clear
9:53 AM 60.1 °F - 30.9 °F 33% 30.23 in 10.0 mi Calm Calm - N/A   Clear
10:53 AM 62.1 °F - 32.0 °F 32% 30.22 in 10.0 mi Variable 3.5 mph - N/A   Clear
11:53 AM 64.0 °F - 30.9 °F 29% 30.22 in 10.0 mi Variable 6.9 mph - N/A   Clear
12:53 PM 64.4 °F - 32.0 °F 30% 30.20 in 10.0 mi Variable 3.5 mph - N/A   Clear
1:53 PM 66.2 °F - 35.6 °F 32% 30.19 in 10.0 mi SW 5.8 mph - N/A   Clear
2:53 PM 68.0 °F - 36.0 °F 31% 30.17 in 10.0 mi Calm Calm - N/A   Clear
3:53 PM 70.0 °F - 37.9 °F 31% 30.15 in 10.0 mi Variable 6.9 mph - N/A   Clear
4:53 PM 66.9 °F - 36.0 °F 32% 30.15 in 10.0 mi South 8.1 mph - N/A   Clear
5:53 PM 66.2 °F - 35.6 °F 32% 30.15 in 10.0 mi South 8.1 mph - N/A   Overcast
6:53 PM 64.9 °F - 34.0 °F 32% 30.16 in 10.0 mi Calm Calm - N/A   Mostly Cloudy
7:53 PM 63.0 °F - 32.0 °F 31% 30.16 in 10.0 mi Variable 4.6 mph - N/A   Partly Cloudy
8:53 PM 61.0 °F - 37.0 °F 41% 30.18 in 10.0 mi Calm Calm - N/A   Overcast
9:53 PM 57.9 °F - 42.1 °F 56% 30.19 in 10.0 mi South 4.6 mph - 0.00 in   Overcast
10:53 PM 54.0 °F - 46.9 °F 77% 30.18 in 10.0 mi Calm Calm - 0.00 in   Overcast
11:53 PM 55.0 °F - 46.9 °F 74% 30.18 in 10.0 mi Calm Calm - N/A   Overcast